DMSP 5D-2 F13 DEB, 40579

Orbit data source: Space-Track

DMSP 5D-2 F13 DEB, 40579 is space debris in SSO originally from a launch on Fri, 24 Mar 1995 UTC launched from the Air Force Western Test Range (AFWTR). Debris objects in space refer to the collection of defunct objects orbiting the Earth. Examples of debris include non-operational satellites, rocket bodies, and fragments generated from explosions, collisions, or faulty payload assembly.

Loading next visibility...
Identifier
40579, 1995-015EN
Orbit
SSO
Country
Flag of USUS
Related business
Manufacturer
Unknown
Mission
Spacecraft
Bus & Motor
Unknown
Mass
Unknown
Launch date (UTC)
1995-03-24 (30 years ago)
Launch vehicle
Unknown
Launch site
Air Force Western Test Range (AFWTR)
Object type
Payload
Rocket body
Debris
Shape & HBR
Unknown
Radar Cross Section
Small (<0.1 m²)

Expand to show TLE details & history
Last TLE update: 11 hours ago

TLE from 11 hours ago
0 DMSP 5D-2 F13 DEB
1 40579U 95015EN  25258.17971696  .00123878  00000-0  10641-1 0  9995
2 40579  98.4822 336.9403 0019278  27.9511 332.2740 14.96668643549978
Epoch: 2025-09-15T04:18Z
TLE epoch observation values (Epoch: 2025-09-15T04:18:47.545Z)
Latitude
0.00004°
Longitude
-82.14589°
Altitude
568.358 km
Speed
7.583 km/s
True Right ascension
22h 27m 45s
True Declination
0° 00' 00"
Sunlit
Object was in full shadow at epoch
Visualization orbit readout
Latitude
Unknown
Longitude
Unknown
Altitude
Unknown
Speed
Unknown
Apparent Right ascension
Unknown
Apparent Declination
Unknown
Sunlit
N/A
Visualization observer readout
Local Sidereal Time
07:48:04
Azimuth
Unknown
Elevation
Unknown
Doppler factor
Unknown
Orbital elements
Apogee altitude
587.647 km
Perigee altitude
560.841 km
Semi-major axis
6,952.381 km
Eccentricity
0.00193
Inclination
98.4822°
RAAN
336.9403°
Arg. of periapsis
27.9511°
True anomaly
332.171°
Mean anomaly
332.274°
Eccentric anomaly
332.22252°
Mean motion
3.74406 °/min
Orbital period
96.15 mins
BSTAR
0.010641
Loading maneuver chart data...
Computing Atmospheric mass density...

Documentation

Showing up to 5 results
|